Regional Weather Roundup
Issued by NWS

Home | Current Version | Previous Version | Text Only | Print | Product List | Glossary On
Versions: 1 2 3 4 5 6 7 8 9 10 11 12 13 14 15 16 17 18 19 20 21 22 23 24 25 26 27 28
000
ASUS44 KLIX 191313
RWRLA
LOUISIANA WEATHER ROUNDUP
NATIONAL WEATHER SERVICE NEW ORLEANS LA
800 AM CDT THU OCT 19 2017

NOTE: "FAIR" INDICATES FEW OR NO CLOUDS BELOW 12,000 FEET WITH NO
      SIGNIFICANT WEATHER AND/OR OBSTRUCTIONS TO VISIBILITY.
      SKY/WX - SKY CONDITION AND SIGNIFICANT WEATHER.
      TMP - AIR TEMPERATURE.    DP   - DEWPOINT TEMPERATURE.
      RH  - RELATIVE HUMIDITY.  PRES - PRESSURE.
      HX  - HEAT INDEX.         WCI  - WIND CHILL INDEX.

*  THESE STATIONS ARE NOT NWS OR FAA STATIONS AND ARE NOT UNDER
   NWS QUALITY CONTROL.

LAZ040-048-061>063-065-066-069-191400-
SOUTHEAST LOUISIANA

CITY           SKY/WX    TMP DP  RH WIND       PRES   REMARKS
N.O. INTL ARPT MOSUNNY   69  66  90 NE7       30.16R
N.O. LAKEFRONT SUNNY     69  63  81 NE13      30.16R
N.O. DOWNTOWN* FAIR      66  60  81 CALM      30.17R
RESERVE*       FAIR      65  61  86 N6        30.17R
SLIDELL        SUNNY     56  54  93 N3        30.17R
BATON ROUGE    CLEAR     57  53  86 NE5       30.18R
BOOTHVILLE     MOSUNNY   78  71  79 NE6       30.13R
BELLE CHASSE   NOT AVBL
BOGALUSA*      FAIR      55  52  89 CALM      30.20S
GALLIANO*      SUNNY     68  64  86 N5        30.15R
NEW ROADS*     FAIR      54  53  94 CALM      30.18R
GONZALES*      FAIR      59  55  87 CALM      30.16R
HAMMOND*       SUNNY     55  52  88 CALM      30.18R
HOUMA*         MOSUNNY   63  61  94 NE5       30.15R
PORT FOURCHON* MOSUNNY   72  66  83 N8        30.14R

$$

LAZ041-044-053-054-191400-
SOUTHWEST LOUISIANA

CITY           SKY/WX    TMP DP  RH WIND       PRES   REMARKS
LAKE CHARLES   PTCLDY    62  60  93 E5        30.15R
LAFAYETTE      PTCLDY    59  58  96 NE3       30.16R
PATTERSON      NOT AVBL
SALT POINT       N/A     63  61  93 CALM      30.13R
NEW IBERIA     CLEAR     60  57  89 NE5       30.16R
CHENAULT AIRPK MOCLDY    61  57  88 CALM      30.16R

$$

LAZ027-028-191400-
CENTRAL LOUISIANA

CITY           SKY/WX    TMP DP  RH WIND       PRES   REMARKS
FORT POLK      PTCLDY    56  55  95 CALM      30.18R
ALEXANDRIA INT PTCLDY    51  50  96 CALM      30.18R FOG
ALEXANDRIA     CLEAR     49  49 100 CALM      30.19R

$$

LAZ001-002-191400-
NORTHWEST LOUISIANA

CITY           SKY/WX    TMP DP  RH WIND       PRES   REMARKS
SHREVEPORT     MOCLDY    50  49  96 CALM      30.19R
BARKSDALE AFB  CLEAR     48  48 100 CALM      30.19R
DTN SHREVEPORT CLEAR     52  50  93 CALM      30.20R

$$

LAZ014-016-191400-
NORTHEAST LOUISIANA

CITY           SKY/WX    TMP DP  RH WIND       PRES   REMARKS
MONROE         CLEAR     51  50  96 CALM      30.22R
TALLULAH       CLEAR     54  52  93 CALM      30.23R

$$





USA.gov is the U.S. government's official web portal to all federal, state and local government web resources and services.